loading
|

STARLINK-32134, 60300

Orbit data source: Space-Track

STARLINK-32134, 60300 is a payload satellite owned by SpaceX/Seattle (US) in LEO that was launched on Sun, 28 Jul 2024 UTC via an FALCON 9 launch vehicle from the Air Force Eastern Test Range (AFETR). Payloads include a variety of satellites, spacecraft, and rockets equipped with specific instruments for various scientific and technological missions. These include communications satellites like Starlink; space stations such as the ISS; scientific satellites like the Hubble; Earth observation satellites from companies like Planet Labs, Umbra, and HawkEye 360; GPS; miniature CubeSats for education and research; and military/defense satellites.

Loading next visibility...
Loading greatness...
STARLINK-32134 details
Identifier
60300, 2024-132Y
Orbit
LEO
Last TLE update7 hours ago
Origin
Flag of USSpaceX/Seattle (US)
ManufacturerSpaceX/Seattle
Mission statusOperational
MissionUnknown
Bus & MotorSTARLINK V2M, Unknown motor
Mass750 kg wet, ~700 kg dry
Launch date (UTC)
2024-07-28 (2 months ago)
Launch vehicle
FALCON 9
Launch site
Air Force Eastern Test Range (AFETR)
Object type
Payload
Rocket body
Debris
Radar Cross SectionLarge (>1 m²)

Expand to show TLE details & history

TLE from 7 hours ago
0 STARLINK-32134
1 60300U 24132Y   24261.62588409  .00079384  00000-0  19715-2 0  9994
2 60300  53.1610  32.1674 0001815 110.8164 249.3036 15.39657973  9175
Epoch: 2024-09-17T15:01Z
Definitive object data (Epoch: 2024-09-17T15:01:16.385Z)
Latitude0.00003°
Longitude169.8113°
Altitude448.461 km
Speed7.644 km/s
True Right ascension02h 08m 40s
True Declination0° 00' 00"
Sunlit
Object was in full shadow at TLE epoch
Predictive object data (real-time)
Latitude-3.54435°
Longitude-8.92427°
Altitude448.043 km
Speed7.645 km/s
Apparent Right ascension12h 44m 46s
Apparent Declination-64° 30' 16"
Sunlit
Object is in daylight
Predictive observer data (real-time)
Local Sidereal Time14:51:48
Azimuth193.733° SSW
Elevation-17.366°
Doppler factor1
Orbital elements
Apogee448.616 km
Perigee446.138 km
Semi-major axis6,825.514 km
Eccentricity0.0001815
Inclination53.161°
RAAN32.1674°
Arg. of periapsis110.8164°
True anomaly249.28415°
Mean anomaly249.3036°
Eccentric anomaly249.29387°
Mean motion3.84893 °/min
BSTAR0.0019715
Period93.53 mins
No data available

STARLINK-32134 Visibility forecast

Observer location: 39.9160978°, -105.1181434

STARLINK-32134 is not visible in the next 10 days
Span
Click to sort rows by Start time (UTC) header in descending order
Start Az.
Max El. time (UTC)
Max El. Az.
Max El.
End time (UTC)
End Az.